AKST,Max TemperatureF,Mean TemperatureF,Min TemperatureF,Max Dew PointF,MeanDew PointF,Min DewpointF,Max Humidity, Mean Humidity, Min Humidity, Max Sea Level PressureIn, Mean Sea Level PressureIn, Min Sea Level PressureIn, Max VisibilityMiles, Mean VisibilityMiles, Min VisibilityMiles, Max Wind SpeedMPH, Mean Wind SpeedMPH, Max Gust SpeedMPH,PrecipitationIn, CloudCover, Events, WindDirDegrees
2011-1-1,33,32,32,34,31,30,100,92,87,30.11,30.07,30.00,10,9,5,6,2,,0.00,8,,2
2011-1-2,35,34,33,36,33,30,100,94,87,30.19,30.17,30.15,10,6,3,6,1,,0.00,8,,342
2011-1-3,39,36,33,34,33,32,93,87,75,30.13,29.97,29.79,10,9,7,14,4,21,0.00,8,,17
2011-1-4,42,40,37,37,35,34,100,87,70,29.79,29.67,29.62,10,7,3,14,5,23,0.00,6,,12
2011-1-5,39,36,33,36,34,32,100,90,81,29.80,29.40,29.17,10,9,5,16,4,28,0.00,7,,24
2011-1-6,39,36,32,36,33,30,100,89,75,30.07,29.99,29.72,10,10,9,13,5,20,0.00,7,,172
2011-1-7,35,32,30,32,30,28,100,92,81,30.09,30.02,29.97,10,7,0,6,2,,0.00,7,,14
2011-1-8,28,24,21,27,24,19,100,94,80,30.43,30.32,30.19,10,9,0,7,2,,0.00,2,,2
2011-1-9,24,20,17,25,19,12,100,89,74,30.54,30.52,30.49,10,10,10,7,2,,0.00,0,,65
2011-1-10,23,18,14,19,15,9,100,87,68,30.55,30.50,30.40,10,10,10,5,1,,0.00,0,,72
2011-1-11,19,14,10,16,10,5,100,83,68,30.36,30.25,30.07,10,10,10,6,2,,0.00,0,,47
2011-1-12,23,16,8,12,8,3,92,71,46,30.04,29.92,29.84,10,10,10,10,4,,0.00,3,,38
2011-1-13,17,14,10,7,2,-6,79,59,41,30.12,30.07,30.03,10,10,10,8,2,,0.00,6,,22
2011-1-14,15,9,3,5,1,-4,85,66,49,30.16,29.94,29.79,10,10,10,7,4,,0.00,3,,341
2011-1-15,17,16,14,16,12,7,93,86,68,29.95,29.82,29.57,10,3,0,4,0,,0.00,8,,8
2011-1-16,23,21,19,21,19,16,93,91,80,29.46,29.29,29.23,10,2,0,0,0,,0.00,8,,-1
2011-1-17,28,20,12,27,19,9,100,91,79,30.14,30.05,29.81,10,8,2,0,0,,0.00,7,,-1
2011-1-18,35,32,30,34,31,30,100,92,87,30.11,30.06,30.01,10,8,3,8,4,,0.00,7,,351
2011-1-19,33,32,32,32,30,30,100,91,87,30.20,30.06,29.70,10,4,2,7,3,,0.00,8,,6
2011-1-20,41,36,32,37,33,30,100,93,81,29.88,29.77,29.63,10,6,1,9,2,,0.00,8,,349
2011-1-21,41,38,35,37,36,34,100,92,76,29.81,29.55,29.38,10,7,4,10,2,18,0.00,8,,9
2011-1-22,42,38,33,37,35,30,100,84,76,29.83,29.66,29.55,10,8,4,13,3,28,0.00,8,,208
2011-1-23,42,38,35,36,32,28,93,79,57,29.96,29.85,29.66,10,9,5,16,5,25,0.00,8,,12
2011-1-24,39,36,33,37,35,32,100,94,87,29.87,29.81,29.72,10,8,0,8,2,,0.00,7,,326
2011-1-25,42,40,37,37,36,34,93,82,70,29.85,29.76,29.55,10,9,5,12,5,21,0.00,8,,47
2011-1-26,44,40,35,41,38,34,100,88,71,29.81,29.70,29.55,10,6,0,13,4,24,0.00,8,,14
2011-1-27,37,34,30,34,31,28,93,86,75,30.22,30.04,29.75,10,10,6,9,4,,0.00,6,,311
2011-1-28,33,30,26,30,27,21,100,91,80,30.21,30.14,30.12,10,10,0,6,1,,0.00,3,,327
2011-1-29,33,27,21,27,22,18,93,84,70,30.27,30.25,30.22,10,10,10,7,3,,0.00,0,,332
2011-1-30,30,24,19,25,19,12,93,80,59,30.27,30.26,30.24,10,10,10,6,2,,0.00,0,,327
2011-1-31,39,32,26,32,20,14,87,64,51,30.36,30.32,30.25,10,10,10,8,2,,0.00,8,,15